DW0126 Weather Reports


Display with metric or nautical units.
time (UTC)temp
F
wind
direction
speed
MPH
gust
MPH
rain 1hr
in
rain 24hr
in
rain mn
in
humidity
%
barometer
mb
20260502180715 63 45 5.0 13.0 0.00 0.00 0.00 69 1015.4
20260502163715 54 293 4.0 5.0 0.00 0.00 0.00 87 1015.8
20260502162735 53 248 2.0 4.0 0.00 0.00 0.00 88 1015.8
20260502161715 53 338 1.0 3.0 0.00 0.00 0.00 89 1015.8
20260502160755 52 315 2.0 3.0 0.00 0.00 0.00 89 1015.9
20260502151715 51 23 3.0 5.0 0.00 0.00 0.00 91 1016.0
20260502150715 51 45 4.0 5.0 0.00 0.00 0.00 90 1016.0
20260502130715 51 90 2.0 3.0 0.00 0.00 0.00 90 1015.9
20260502123715 51 23 2.0 3.0 0.00 0.00 0.00 90 1015.9
20260502122715 51 68 2.0 3.0 0.00 0.00 0.00 90 1015.9
20260502121716 51 0.0 0.0 0.00 0.00 0.00 90 1016.2
20260502120715 51 0.0 0.0 0.00 0.00 0.00 89 1016.2
20260502115715 51 0.0 1.0 0.00 0.00 0.00 90 1016.4
20260502114715 51 0.0 0.0 0.00 0.00 0.00 90 1016.4
20260502113715 51 0.0 0.0 0.00 0.00 0.00 90 1016.4
20260502112715 51 0.0 0.0 0.00 0.00 0.00 89 1016.4
20260502111735 51 0.0 1.0 0.00 0.00 0.00 89 1016.6
20260502110715 51 0.0 0.0 0.00 0.00 0.00 90 1016.5
20260502105715 51 90 1.0 2.0 0.00 0.00 0.00 90 1016.6
20260502104715 51 225 2.0 3.0 0.00 0.00 0.00 89 1016.5
20260502103715 51 225 2.0 3.0 0.00 0.00 0.00 89 1016.6
20260502102715 51 225 3.0 4.0 0.00 0.00 0.00 89 1016.9
20260502101735 51 225 3.0 5.0 0.00 0.00 0.00 89 1017.1
20260502100715 51 248 2.0 3.0 0.00 0.00 0.00 89 1017.3
20260502090716 51 0.0 0.0 0.00 0.00 0.00 89 1016.6
20260502070716 51 203 1.0 2.0 0.00 0.00 0.00 87 1016.5
20260502065717 51 248 2.0 4.0 0.00 0.00 0.00 87 1016.3
20260502064717 51 248 2.0 3.0 0.00 0.00 0.00 86 1016.2
20260502063717 51 225 2.0 4.0 0.00 0.00 0.00 86 1016.2
20260502062717 52 248 3.0 6.0 0.00 0.00 0.00 85 1016.3
20260502061737 52 248 1.0 2.0 0.00 0.00 0.00 85 1016.1
20260502060717 52 203 1.0 2.0 0.00 0.00 0.00 85 1016.1
20260502055717 52 225 4.0 6.0 0.00 0.00 0.00 84 1016.1
20260502054737 52 248 4.0 5.0 0.00 0.00 0.00 84 1016.0
20260502053717 53 158 2.0 4.0 0.00 0.00 0.00 83 1016.1
20260502052717 53 225 2.0 4.0 0.00 0.00 0.00 82 1016.1
20260502051717 53 248 4.0 6.0 0.00 0.00 0.00 81 1016.1
20260502050717 54 248 2.0 5.0 0.00 0.00 0.00 81 1016.0
20260502045717 54 225 4.0 6.0 0.00 0.00 0.00 80 1016.0
20260502044716 55 225 5.0 8.0 0.00 0.00 0.00 79 1015.9
20260502043717 55 225 4.0 7.0 0.00 0.00 0.00 78 1015.7
20260502042717 56 248 3.0 5.0 0.00 0.00 0.00 77 1015.6
20260502041717 56 225 4.0 7.0 0.00 0.00 0.00 77 1015.4
20260502040717 57 225 4.0 6.0 0.00 0.00 0.00 75 1015.2
20260502035717 57 225 3.0 7.0 0.00 0.00 0.00 74 1015.0
20260502034737 58 248 3.0 5.0 0.00 0.00 0.00 73 1014.9
20260502033717 58 225 4.0 7.0 0.00 0.00 0.00 72 1014.7
20260502032736 59 248 4.0 6.0 0.00 0.00 0.00 71 1014.5
20260502031717 60 248 3.0 6.0 0.00 0.00 0.00 70 1014.3
20260502030717 60 225 3.0 5.0 0.00 0.00 0.00 68 1014.3
20260502025716 61 225 4.0 6.0 0.00 0.00 0.00 67 1014.2
20260502024717 62 225 4.0 6.0 0.00 0.00 0.00 66 1013.9
20260502023717 62 225 4.0 5.0 0.00 0.00 0.00 65 1013.7
20260502022737 63 225 4.0 9.0 0.00 0.00 0.00 64 1013.6
20260502021716 64 248 5.0 7.0 0.00 0.00 0.00 63 1013.4
20260502020717 65 248 3.0 7.0 0.00 0.00 0.00 62 1013.5
20260502015756 65 203 4.0 7.0 0.00 0.00 0.00 62 1013.4
20260502014717 66 225 4.0 6.0 0.00 0.00 0.00 62 1013.4
20260502013737 67 225 5.0 9.0 0.00 0.00 0.00 60 1013.4
20260502012716 67 225 8.0 11.0 0.00 0.00 0.00 59 1013.5
20260502011717 68 225 7.0 11.0 0.00 0.00 0.00 58 1013.4
20260502010717 70 203 6.0 10.0 0.00 0.00 0.00 57 1013.4
20260502005757 71 225 5.0 12.0 0.00 0.00 0.00 57 1013.4
20260502004737 71 225 6.0 8.0 0.00 0.00 0.00 57 1013.4
20260502003717 72 225 7.0 11.0 0.00 0.00 0.00 56 1013.4
20260502002736 72 225 7.0 11.0 0.00 0.00 0.00 58 1013.2
20260502001717 71 248 5.0 7.0 0.00 0.00 0.00 58 1013.3
20260502000737 71 225 4.0 6.0 0.00 0.00 0.00 58 1013.2
20260501235716 72 203 6.0 10.0 0.00 0.00 0.00 55 1013.3
20260501234716 73 225 4.0 6.0 0.00 0.00 0.00 54 1013.4
20260501233737 74 225 5.0 9.0 0.00 0.00 0.00 52 1013.4
20260501232737 74 225 6.0 12.0 0.00 0.00 0.00 52 1013.4
20260501231717 74 225 4.0 7.0 0.00 0.00 0.00 52 1013.6
20260501230717 75 203 5.0 8.0 0.00 0.00 0.00 52 1013.7
20260501225716 75 248 3.0 6.0 0.00 0.00 0.00 52 1013.8
20260501224716 75 158 2.0 5.0 0.00 0.00 0.00 52 1013.9
20260501223717 75 248 4.0 10.0 0.00 0.00 0.00 53 1014.0
20260501222717 75 203 4.0 7.0 0.00 0.00 0.00 52 1014.0
20260501221717 75 225 4.0 7.0 0.00 0.00 0.00 54 1014.2
20260501220717 74 203 4.0 7.0 0.00 0.00 0.00 53 1014.3
20260501215737 75 248 4.0 6.0 0.00 0.00 0.00 54 1014.3
20260501214736 74 225 4.0 7.0 0.00 0.00 0.00 53 1014.5
20260501213717 74 270 1.0 3.0 0.00 0.00 0.00 52 1014.5
20260501212737 73 225 4.0 7.0 0.00 0.00 0.00 55 1014.6
20260501211717 73 225 4.0 7.0 0.00 0.00 0.00 55 1014.8
20260501210717 74 203 5.0 9.0 0.00 0.00 0.00 55 1014.9
20260501205716 74 203 5.0 8.0 0.00 0.00 0.00 53 1015.0
20260501204716 74 203 2.0 6.0 0.00 0.00 0.00 52 1014.9
20260501203716 73 0 2.0 3.0 0.00 0.00 0.00 51 1014.9
20260501202716 73 270 2.0 4.0 0.00 0.00 0.00 52 1015.1
20260501201717 73 293 4.0 8.0 0.00 0.00 0.00 53 1015.1
20260501200717 72 158 1.0 2.0 0.00 0.00 0.00 54 1015.1
20260501195736 71 315 2.0 3.0 0.00 0.00 0.00 55 1015.1
20260501194716 71 315 3.0 4.0 0.00 0.00 0.00 55 1015.2
20260501193717 71 0.0 1.0 0.00 0.00 0.00 56 1015.3
20260501192737 70 248 1.0 2.0 0.00 0.00 0.00 56 1015.4
20260501191736 70 293 2.0 3.0 0.00 0.00 0.00 58 1015.6
20260501190717 70 0 3.0 5.0 0.00 0.00 0.00 58 1015.6
20260501185716 69 338 1.0 2.0 0.00 0.00 0.00 59 1015.7
20260501184716 68 293 3.0 5.0 0.00 0.00 0.00 62 1015.8
20260501183716 67 248 2.0 3.0 0.00 0.00 0.00 63 1015.7
20260501182716 67 315 1.0 2.0 0.00 0.00 0.00 63 1015.9
20260501181717 66 0 2.0 3.0 0.00 0.00 0.00 65 1016.0